Location: Wanzleben
(52.0609°N, 11.4408°E)
Time: 15:53:53
(UTC+00:00)

Cosmos 1867 - Pass Details

Date: 18 September 2020
Orbit: 777 x 799 km, 65.0° (Epoch: 21 October)

Event Time Altitude Azimuth Distance (km) Brightness Sun altitude
Rises 18:24:59 0° 317° (NW) 3,314 7.9 -10.5°
Reaches altitude 10° 18:27:26 10° 315° (NW) 2,381 7.1 -10.8°
Maximum altitude 18:32:53 71° 233° (SW) 847 3.8 -11.7°
Drops below altitude 10° 18:38:18 10° 150° (SSE) 2,365 5.6 -12.4°
Enters shadow 18:38:36 - 150° (SSE) 2,477 5.7 -12.5°
